Skip Page Navigation
NASA JPL Caltech
NASA Logo - Jet Propulsion Laboratory + View the NASA Portal
+ Center for Near-Earth Object Studies
JPL Home Earth Solar System Stars & Galaxies Technology
JPL Solar System Dynamics
BODIES ORBITS EPHEMERIDES TOOLS PHYSICAL DATA DISCOVERY FAQ SITE MAP
JPL Small-Body Database Browser
Search: [ help ]  
(2012 TB101)
Classification: Main-belt Asteroid          SPK-ID: 3618651
Ephemeris | Orbit Diagram | Orbital Elements | Mission Design | Physical Parameters | Close-Approach Data ]

[ hide orbit diagram ]

For accurate long-term ephemerides, please instead use our Horizons system.This orbit viewer was implemented using two-body methods, and hence should not be used for determining accurate long-term trajectories (over several years or decades) or planetary encounter circumstances.


Orbital Elements at Epoch 2459396.5 (2021-Jul-01.0) TDB
Reference: JPL 8 (heliocentric ecliptic J2000)
 Element Value Uncertainty (1-sigma)   Units 
e .2539544717923329 8.3555e-08  
a 3.123859364274289 7.7659e-08 au
q 2.330541309466479 2.7108e-07 au
i 15.08025748604516 1.1246e-05 deg
node 275.7863659601763 4.3022e-05 deg
peri 117.2294471174858 6.0575e-05 deg
M 206.2559988218011 4.0977e-05 deg
tp 2460257.754127249207
(2023-Nov-09.25412725)
0.0002554 TDB
period 2016.673713664741
5.52
7.5202e-05
2.059e-07
d
yr
n .1785117729063868 6.6567e-09 deg/d
Q 3.917177419082099 9.7381e-08 au
  Orbit Determination Parameters
   # obs. used (total)      71  
   data-arc span      4528 days (12.40 yr)  
   first obs. used      2007-12-04  
   last obs. used      2020-04-27  
   planetary ephem.      DE441  
   SB-pert. ephem.      SB441-N16  
   condition code      0  
   norm. resid. RMS      .58318  
   source      ORB  
   producer      Otto Matic  
   solution date      2021-Apr-15 06:47:14  

Additional Information
 Earth MOID = 1.38153 au 
 Jupiter MOID = 1.75373 au 
 T_jup = 3.113 
[ show covariance matrix ]

Ephemeris | Orbit Diagram | Orbital Elements | Mission Design | Physical Parameters | Close-Approach Data ]

Physical Parameter Table
Parameter Symbol Value Units Sigma Reference Notes
absolute magnitude H 16.4   n/a MPO430133  

[ show close-approach data ]
Ephemeris | Orbit Diagram | Orbital Elements | Mission Design | Physical Parameters | Close-Approach Data ]
ABOUT SSD CREDITS/AWARDS PRIVACY/COPYRIGHT GLOSSARY LINKS
FirstGov 2021-Jul-24 15:05 UT
(server date/time)  
NASA Home Page
Site Manager:   Ryan S. Park
Webmaster  Alan B. Chamberlin